Location: Unspecified
(33.2407°S, 0.0000°E)
Time: 09:04:12
(UTC+00:00)

Envisat - Pass Details

Date: 20 May 2019
Orbit: 764 x 766 km, 98.1° (Epoch: 24 June)

Event Time Altitude Azimuth Distance (km) Brightness Sun altitude
Rises 06:13:21 0° 24° (NNE) 3,218 6.9 -7.4°
Reaches altitude 10° 06:15:40 10° 28° (NNE) 2,300 6.2 -7.0°
Maximum altitude 06:20:38 58° 105° (ESE) 900 3.7 -6.0°
Drops below altitude 10° 06:25:40 10° 183° (S) 2,329 5.3 -5.0°
Sets 06:28:01 0° 187° (S) 3,263 6.0 -4.5°
